YAOGAN-27

Last updated on Sat Oct 18 2025 00:02:33 GMT+0000 (Coordinated Universal Time)

1 40878U 15040A 25290.74920391 -.00000005 00000+0 98185-4 0 9990 2 40878 100.0982 282.9059 0008828 56.5920 303.6037 13.16056466485778
UTC large
Height (km)
Speed (km/s)
/
Latitude / Longitude
Inclination (degrees)
Orbital Period (minutes)
Azimuth
Elevation
Range (km)
Doppler Factor

Next 0 passes for location: London (51.5072 / 0.1276)

Sorry there are no passes over London.